Date_Time,Julian_Date,Latitude,Longitude,Instrument_Depth,Water_Temperature
(yyyy-mm-dd hh:mn:ss UTC),(JD),(+ deg. North),(+ deg. East),(m),(deg. C)
1977-10-18 23:59:00 UTC,2443435.499306,29.1900,-87.6367,0090,19.6730
1977-10-19 00:59:00 UTC,2443435.540972,29.1900,-87.6367,0090,19.3070
1977-10-19 01:59:00 UTC,2443435.582639,29.1900,-87.6367,0090,18.9960
1977-10-19 02:59:00 UTC,2443435.624306,29.1900,-87.6367,0090,19.5860
1977-10-19 03:59:00 UTC,2443435.665972,29.1900,-87.6367,0090,19.8030
1977-10-19 04:59:00 UTC,2443435.707639,29.1900,-87.6367,0090,19.6790
1977-10-19 05:59:00 UTC,2443435.749306,29.1900,-87.6367,0090,19.6670
1977-10-19 06:59:00 UTC,2443435.790972,29.1900,-87.6367,0090,19.6740
1977-10-19 07:59:00 UTC,2443435.832639,29.1900,-87.6367,0090,19.3490
1977-10-19 08:59:00 UTC,2443435.874306,29.1900,-87.6367,0090,19.3520
1977-10-19 09:59:00 UTC,2443435.915972,29.1900,-87.6367,0090,19.6370
1977-10-19 10:59:00 UTC,2443435.957639,29.1900,-87.6367,0090,19.5580
1977-10-19 11:59:00 UTC,2443435.999306,29.1900,-87.6367,0090,19.5360
1977-10-19 12:59:00 UTC,2443436.040972,29.1900,-87.6367,0090,19.6920
1977-10-19 13:59:00 UTC,2443436.082639,29.1900,-87.6367,0090,19.8110
1977-10-19 14:59:00 UTC,2443436.124306,29.1900,-87.6367,0090,19.6960
1977-10-19 15:59:00 UTC,2443436.165972,29.1900,-87.6367,0090,19.6600
1977-10-19 16:59:00 UTC,2443436.207639,29.1900,-87.6367,0090,19.8590
1977-10-19 17:59:00 UTC,2443436.249306,29.1900,-87.6367,0090,19.8530
1977-10-19 18:59:00 UTC,2443436.290972,29.1900,-87.6367,0090,19.6810
1977-10-19 19:59:00 UTC,2443436.332639,29.1900,-87.6367,0090,19.6880
1977-10-19 20:59:00 UTC,2443436.374306,29.1900,-87.6367,0090,19.8150
1977-10-19 21:59:00 UTC,2443436.415972,29.1900,-87.6367,0090,19.8510
1977-10-19 22:59:00 UTC,2443436.457639,29.1900,-87.6367,0090,19.7670
1977-10-19 23:59:00 UTC,2443436.499306,29.1900,-87.6367,0090,19.7690
1977-10-20 00:59:00 UTC,2443436.540972,29.1900,-87.6367,0090,19.8200
1977-10-20 01:59:00 UTC,2443436.582639,29.1900,-87.6367,0090,19.7730
1977-10-20 02:59:00 UTC,2443436.624306,29.1900,-87.6367,0090,19.7720
1977-10-20 03:59:00 UTC,2443436.665972,29.1900,-87.6367,0090,19.8630
1977-10-20 04:59:00 UTC,2443436.707639,29.1900,-87.6367,0090,19.7920
1977-10-20 05:59:00 UTC,2443436.749306,29.1900,-87.6367,0090,19.6550
1977-10-20 06:59:00 UTC,2443436.790972,29.1900,-87.6367,0090,19.7260
1977-10-20 07:59:00 UTC,2443436.832639,29.1900,-87.6367,0090,19.8190
1977-10-20 08:59:00 UTC,2443436.874306,29.1900,-87.6367,0090,19.7330
1977-10-20 09:59:00 UTC,2443436.915972,29.1900,-87.6367,0090,19.6640
1977-10-20 10:59:00 UTC,2443436.957639,29.1900,-87.6367,0090,19.6460
1977-10-20 11:59:00 UTC,2443436.999306,29.1900,-87.6367,0090,19.6640
1977-10-20 12:59:00 UTC,2443437.040972,29.1900,-87.6367,0090,19.7060
1977-10-20 13:59:00 UTC,2443437.082639,29.1900,-87.6367,0090,19.7210
1977-10-20 14:59:00 UTC,2443437.124306,29.1900,-87.6367,0090,19.7510
1977-10-20 15:59:00 UTC,2443437.165972,29.1900,-87.6367,0090,19.7290
1977-10-20 16:59:00 UTC,2443437.207639,29.1900,-87.6367,0090,19.5380
1977-10-20 17:59:00 UTC,2443437.249306,29.1900,-87.6367,0090,19.4810
1977-10-20 18:59:00 UTC,2443437.290972,29.1900,-87.6367,0090,19.6070
1977-10-20 19:59:00 UTC,2443437.332639,29.1900,-87.6367,0090,19.6500
1977-10-20 20:59:00 UTC,2443437.374306,29.1900,-87.6367,0090,19.6220
1977-10-20 21:59:00 UTC,2443437.415972,29.1900,-87.6367,0090,19.6000
1977-10-20 22:59:00 UTC,2443437.457639,29.1900,-87.6367,0090,19.5940
1977-10-20 23:59:00 UTC,2443437.499306,29.1900,-87.6367,0090,19.6400
1977-10-21 00:59:00 UTC,2443437.540972,29.1900,-87.6367,0090,19.7010
1977-10-21 01:59:00 UTC,2443437.582639,29.1900,-87.6367,0090,19.6340
1977-10-21 02:59:00 UTC,2443437.624306,29.1900,-87.6367,0090,19.6630
1977-10-21 03:59:00 UTC,2443437.665972,29.1900,-87.6367,0090,19.7920
1977-10-21 04:59:00 UTC,2443437.707639,29.1900,-87.6367,0090,19.8330
1977-10-21 05:59:00 UTC,2443437.749306,29.1900,-87.6367,0090,19.8600
1977-10-21 06:59:00 UTC,2443437.790972,29.1900,-87.6367,0090,19.8370
1977-10-21 07:59:00 UTC,2443437.832639,29.1900,-87.6367,0090,19.8210
1977-10-21 08:59:00 UTC,2443437.874306,29.1900,-87.6367,0090,19.7800
1977-10-21 09:59:00 UTC,2443437.915972,29.1900,-87.6367,0090,19.5600
1977-10-21 10:59:00 UTC,2443437.957639,29.1900,-87.6367,0090,19.4960
1977-10-21 11:59:00 UTC,2443437.999306,29.1900,-87.6367,0090,19.5200
1977-10-21 12:59:00 UTC,2443438.040972,29.1900,-87.6367,0090,19.4650
1977-10-21 13:59:00 UTC,2443438.082639,29.1900,-87.6367,0090,19.5010
1977-10-21 14:59:00 UTC,2443438.124306,29.1900,-87.6367,0090,19.5340
1977-10-21 15:59:00 UTC,2443438.165972,29.1900,-87.6367,0090,19.6060
1977-10-21 16:59:00 UTC,2443438.207639,29.1900,-87.6367,0090,19.5730
1977-10-21 17:59:00 UTC,2443438.249306,29.1900,-87.6367,0090,19.5790
1977-10-21 18:59:00 UTC,2443438.290972,29.1900,-87.6367,0090,19.6440
1977-10-21 19:59:00 UTC,2443438.332639,29.1900,-87.6367,0090,19.6290
1977-10-21 20:59:00 UTC,2443438.374306,29.1900,-87.6367,0090,19.6580
1977-10-21 21:59:00 UTC,2443438.415972,29.1900,-87.6367,0090,19.6150
1977-10-21 22:59:00 UTC,2443438.457639,29.1900,-87.6367,0090,19.6270
1977-10-21 23:59:00 UTC,2443438.499306,29.1900,-87.6367,0090,19.6300
1977-10-22 00:59:00 UTC,2443438.540972,29.1900,-87.6367,0090,19.5290
1977-10-22 01:59:00 UTC,2443438.582639,29.1900,-87.6367,0090,19.4900
1977-10-22 02:59:00 UTC,2443438.624306,29.1900,-87.6367,0090,19.5570
1977-10-22 03:59:00 UTC,2443438.665972,29.1900,-87.6367,0090,19.6870
1977-10-22 04:59:00 UTC,2443438.707639,29.1900,-87.6367,0090,19.8330
1977-10-22 05:59:00 UTC,2443438.749306,29.1900,-87.6367,0090,19.9240
1977-10-22 06:59:00 UTC,2443438.790972,29.1900,-87.6367,0090,20.0120
1977-10-22 07:59:00 UTC,2443438.832639,29.1900,-87.6367,0090,20.1520
1977-10-22 08:59:00 UTC,2443438.874306,29.1900,-87.6367,0090,20.2360
1977-10-22 09:59:00 UTC,2443438.915972,29.1900,-87.6367,0090,20.1430
1977-10-22 10:59:00 UTC,2443438.957639,29.1900,-87.6367,0090,20.0010
1977-10-22 11:59:00 UTC,2443438.999306,29.1900,-87.6367,0090,19.8620
1977-10-22 12:59:00 UTC,2443439.040972,29.1900,-87.6367,0090,19.7550
1977-10-22 13:59:00 UTC,2443439.082639,29.1900,-87.6367,0090,19.7570
1977-10-22 14:59:00 UTC,2443439.124306,29.1900,-87.6367,0090,19.6500
1977-10-22 15:59:00 UTC,2443439.165972,29.1900,-87.6367,0090,19.5500
1977-10-22 16:59:00 UTC,2443439.207639,29.1900,-87.6367,0090,19.5930
1977-10-22 17:59:00 UTC,2443439.249306,29.1900,-87.6367,0090,19.6280
1977-10-22 18:59:00 UTC,2443439.290972,29.1900,-87.6367,0090,19.6640
1977-10-22 19:59:00 UTC,2443439.332639,29.1900,-87.6367,0090,19.7030
1977-10-22 20:59:00 UTC,2443439.374306,29.1900,-87.6367,0090,19.6700
1977-10-22 21:59:00 UTC,2443439.415972,29.1900,-87.6367,0090,19.6890
1977-10-22 22:59:00 UTC,2443439.457639,29.1900,-87.6367,0090,19.6740
1977-10-22 23:59:00 UTC,2443439.499306,29.1900,-87.6367,0090,19.5700
1977-10-23 00:59:00 UTC,2443439.540972,29.1900,-87.6367,0090,19.7380
1977-10-23 01:59:00 UTC,2443439.582639,29.1900,-87.6367,0090,19.8010
1977-10-23 02:59:00 UTC,2443439.624306,29.1900,-87.6367,0090,19.7890
1977-10-23 03:59:00 UTC,2443439.665972,29.1900,-87.6367,0090,19.8400
1977-10-23 04:59:00 UTC,2443439.707639,29.1900,-87.6367,0090,19.7820
1977-10-23 05:59:00 UTC,2443439.749306,29.1900,-87.6367,0090,19.7740
1977-10-23 06:59:00 UTC,2443439.790972,29.1900,-87.6367,0090,19.8170
1977-10-23 07:59:00 UTC,2443439.832639,29.1900,-87.6367,0090,19.7750
1977-10-23 08:59:00 UTC,2443439.874306,29.1900,-87.6367,0090,19.7570
1977-10-23 09:59:00 UTC,2443439.915972,29.1900,-87.6367,0090,19.8350
1977-10-23 10:59:00 UTC,2443439.957639,29.1900,-87.6367,0090,19.8680
1977-10-23 11:59:00 UTC,2443439.999306,29.1900,-87.6367,0090,19.9180
1977-10-23 12:59:00 UTC,2443440.040972,29.1900,-87.6367,0090,19.7090
1977-10-23 13:59:00 UTC,2443440.082639,29.1900,-87.6367,0090,18.7650
1977-10-23 14:59:00 UTC,2443440.124306,29.1900,-87.6367,0090,18.9020
1977-10-23 15:59:00 UTC,2443440.165972,29.1900,-87.6367,0090,19.7370
1977-10-23 16:59:00 UTC,2443440.207639,29.1900,-87.6367,0090,19.7770
1977-10-23 17:59:00 UTC,2443440.249306,29.1900,-87.6367,0090,19.8270
1977-10-23 18:59:00 UTC,2443440.290972,29.1900,-87.6367,0090,19.8550
1977-10-23 19:59:00 UTC,2443440.332639,29.1900,-87.6367,0090,19.8040
1977-10-23 20:59:00 UTC,2443440.374306,29.1900,-87.6367,0090,19.8210
1977-10-23 21:59:00 UTC,2443440.415972,29.1900,-87.6367,0090,19.8420
1977-10-23 22:59:00 UTC,2443440.457639,29.1900,-87.6367,0090,19.8350
1977-10-23 23:59:00 UTC,2443440.499306,29.1900,-87.6367,0090,19.8390
1977-10-24 00:59:00 UTC,2443440.540972,29.1900,-87.6367,0090,19.8290
1977-10-24 01:59:00 UTC,2443440.582639,29.1900,-87.6367,0090,19.8280
1977-10-24 02:59:00 UTC,2443440.624306,29.1900,-87.6367,0090,19.8220
1977-10-24 03:59:00 UTC,2443440.665972,29.1900,-87.6367,0090,19.8120
1977-10-24 04:59:00 UTC,2443440.707639,29.1900,-87.6367,0090,19.7990
1977-10-24 05:59:00 UTC,2443440.749306,29.1900,-87.6367,0090,19.8200
1977-10-24 06:59:00 UTC,2443440.790972,29.1900,-87.6367,0090,19.9580
1977-10-24 07:59:00 UTC,2443440.832639,29.1900,-87.6367,0090,20.0860
1977-10-24 08:59:00 UTC,2443440.874306,29.1900,-87.6367,0090,20.0300
1977-10-24 09:59:00 UTC,2443440.915972,29.1900,-87.6367,0090,20.1090
1977-10-24 10:59:00 UTC,2443440.957639,29.1900,-87.6367,0090,20.2620
1977-10-24 11:59:00 UTC,2443440.999306,29.1900,-87.6367,0090,20.2880
1977-10-24 12:59:00 UTC,2443441.040972,29.1900,-87.6367,0090,20.2550
1977-10-24 13:59:00 UTC,2443441.082639,29.1900,-87.6367,0090,20.1940
1977-10-24 14:59:00 UTC,2443441.124306,29.1900,-87.6367,0090,20.2350
1977-10-24 15:59:00 UTC,2443441.165972,29.1900,-87.6367,0090,20.3000
1977-10-24 16:59:00 UTC,2443441.207639,29.1900,-87.6367,0090,20.2870
1977-10-24 17:59:00 UTC,2443441.249306,29.1900,-87.6367,0090,20.2380
1977-10-24 18:59:00 UTC,2443441.290972,29.1900,-87.6367,0090,20.1240
1977-10-24 19:59:00 UTC,2443441.332639,29.1900,-87.6367,0090,20.0990
1977-10-24 20:59:00 UTC,2443441.374306,29.1900,-87.6367,0090,20.1300
1977-10-24 21:59:00 UTC,2443441.415972,29.1900,-87.6367,0090,20.0890
1977-10-24 22:59:00 UTC,2443441.457639,29.1900,-87.6367,0090,19.9460
1977-10-24 23:59:00 UTC,2443441.499306,29.1900,-87.6367,0090,19.8210
1977-10-25 00:59:00 UTC,2443441.540972,29.1900,-87.6367,0090,19.8380
1977-10-25 01:59:00 UTC,2443441.582639,29.1900,-87.6367,0090,19.8590
1977-10-25 02:59:00 UTC,2443441.624306,29.1900,-87.6367,0090,19.8890
1977-10-25 03:59:00 UTC,2443441.665972,29.1900,-87.6367,0090,19.9000
1977-10-25 04:59:00 UTC,2443441.707639,29.1900,-87.6367,0090,19.9230
1977-10-25 05:59:00 UTC,2443441.749306,29.1900,-87.6367,0090,19.9140
1977-10-25 06:59:00 UTC,2443441.790972,29.1900,-87.6367,0090,20.0070
1977-10-25 07:59:00 UTC,2443441.832639,29.1900,-87.6367,0090,20.1710
1977-10-25 08:59:00 UTC,2443441.874306,29.1900,-87.6367,0090,20.2900
1977-10-25 09:59:00 UTC,2443441.915972,29.1900,-87.6367,0090,20.3670
1977-10-25 10:59:00 UTC,2443441.957639,29.1900,-87.6367,0090,20.3990
1977-10-25 11:59:00 UTC,2443441.999306,29.1900,-87.6367,0090,20.4580
1977-10-25 12:59:00 UTC,2443442.040972,29.1900,-87.6367,0090,20.5030
1977-10-25 13:59:00 UTC,2443442.082639,29.1900,-87.6367,0090,20.4930
1977-10-25 14:59:00 UTC,2443442.124306,29.1900,-87.6367,0090,20.4670
1977-10-25 15:59:00 UTC,2443442.165972,29.1900,-87.6367,0090,20.4580
1977-10-25 16:59:00 UTC,2443442.207639,29.1900,-87.6367,0090,20.3780
1977-10-25 17:59:00 UTC,2443442.249306,29.1900,-87.6367,0090,20.1950
1977-10-25 18:59:00 UTC,2443442.290972,29.1900,-87.6367,0090,20.0450
1977-10-25 19:59:00 UTC,2443442.332639,29.1900,-87.6367,0090,19.7900
1977-10-25 20:59:00 UTC,2443442.374306,29.1900,-87.6367,0090,19.6110
1977-10-25 21:59:00 UTC,2443442.415972,29.1900,-87.6367,0090,19.7900
1977-10-25 22:59:00 UTC,2443442.457639,29.1900,-87.6367,0090,19.8230
1977-10-25 23:59:00 UTC,2443442.499306,29.1900,-87.6367,0090,19.6310
1977-10-26 00:59:00 UTC,2443442.540972,29.1900,-87.6367,0090,19.6610
1977-10-26 01:59:00 UTC,2443442.582639,29.1900,-87.6367,0090,19.8460
1977-10-26 02:59:00 UTC,2443442.624306,29.1900,-87.6367,0090,19.7080
1977-10-26 03:59:00 UTC,2443442.665972,29.1900,-87.6367,0090,19.6140
1977-10-26 04:59:00 UTC,2443442.707639,29.1900,-87.6367,0090,19.6630
1977-10-26 05:59:00 UTC,2443442.749306,29.1900,-87.6367,0090,19.7020
1977-10-26 06:59:00 UTC,2443442.790972,29.1900,-87.6367,0090,19.8380
1977-10-26 07:59:00 UTC,2443442.832639,29.1900,-87.6367,0090,19.9570
1977-10-26 08:59:00 UTC,2443442.874306,29.1900,-87.6367,0090,19.9900
1977-10-26 09:59:00 UTC,2443442.915972,29.1900,-87.6367,0090,20.0180
1977-10-26 10:59:00 UTC,2443442.957639,29.1900,-87.6367,0090,19.9520
1977-10-26 11:59:00 UTC,2443442.999306,29.1900,-87.6367,0090,19.9140
1977-10-26 12:59:00 UTC,2443443.040972,29.1900,-87.6367,0090,19.9520
1977-10-26 13:59:00 UTC,2443443.082639,29.1900,-87.6367,0090,19.8900
1977-10-26 14:59:00 UTC,2443443.124306,29.1900,-87.6367,0090,19.8890
1977-10-26 15:59:00 UTC,2443443.165972,29.1900,-87.6367,0090,19.9200
1977-10-26 16:59:00 UTC,2443443.207639,29.1900,-87.6367,0090,19.8950
1977-10-26 17:59:00 UTC,2443443.249306,29.1900,-87.6367,0090,19.9230
1977-10-26 18:59:00 UTC,2443443.290972,29.1900,-87.6367,0090,19.9610
1977-10-26 19:59:00 UTC,2443443.332639,29.1900,-87.6367,0090,19.9790
1977-10-26 20:59:00 UTC,2443443.374306,29.1900,-87.6367,0090,19.9450
1977-10-26 21:59:00 UTC,2443443.415972,29.1900,-87.6367,0090,19.9940
1977-10-26 22:59:00 UTC,2443443.457639,29.1900,-87.6367,0090,20.2470
1977-10-26 23:59:00 UTC,2443443.499306,29.1900,-87.6367,0090,20.3550
1977-10-27 00:59:00 UTC,2443443.540972,29.1900,-87.6367,0090,20.2720
1977-10-27 01:59:00 UTC,2443443.582639,29.1900,-87.6367,0090,20.2280
1977-10-27 02:59:00 UTC,2443443.624306,29.1900,-87.6367,0090,20.0690
1977-10-27 03:59:00 UTC,2443443.665972,29.1900,-87.6367,0090,19.8600
1977-10-27 04:59:00 UTC,2443443.707639,29.1900,-87.6367,0090,19.8980
1977-10-27 05:59:00 UTC,2443443.749306,29.1900,-87.6367,0090,20.0140
1977-10-27 06:59:00 UTC,2443443.790972,29.1900,-87.6367,0090,20.0970
1977-10-27 07:59:00 UTC,2443443.832639,29.1900,-87.6367,0090,20.1910
1977-10-27 08:59:00 UTC,2443443.874306,29.1900,-87.6367,0090,20.2810
1977-10-27 09:59:00 UTC,2443443.915972,29.1900,-87.6367,0090,20.3770
1977-10-27 10:59:00 UTC,2443443.957639,29.1900,-87.6367,0090,20.4740
1977-10-27 11:59:00 UTC,2443443.999306,29.1900,-87.6367,0090,20.4690
1977-10-27 12:59:00 UTC,2443444.040972,29.1900,-87.6367,0090,20.3870
1977-10-27 13:59:00 UTC,2443444.082639,29.1900,-87.6367,0090,20.3270
1977-10-27 14:59:00 UTC,2443444.124306,29.1900,-87.6367,0090,20.2200
1977-10-27 15:59:00 UTC,2443444.165972,29.1900,-87.6367,0090,20.2480
1977-10-27 16:59:00 UTC,2443444.207639,29.1900,-87.6367,0090,20.4780
1977-10-27 17:59:00 UTC,2443444.249306,29.1900,-87.6367,0090,20.4540
1977-10-27 18:59:00 UTC,2443444.290972,29.1900,-87.6367,0090,20.2860
1977-10-27 19:59:00 UTC,2443444.332639,29.1900,-87.6367,0090,20.1690
1977-10-27 20:59:00 UTC,2443444.374306,29.1900,-87.6367,0090,20.0320
1977-10-27 21:59:00 UTC,2443444.415972,29.1900,-87.6367,0090,19.9270
1977-10-27 22:59:00 UTC,2443444.457639,29.1900,-87.6367,0090,19.8530
1977-10-27 23:59:00 UTC,2443444.499306,29.1900,-87.6367,0090,19.7880
1977-10-28 00:59:00 UTC,2443444.540972,29.1900,-87.6367,0090,19.7570
1977-10-28 01:59:00 UTC,2443444.582639,29.1900,-87.6367,0090,19.7270
1977-10-28 02:59:00 UTC,2443444.624306,29.1900,-87.6367,0090,19.6980
1977-10-28 03:59:00 UTC,2443444.665972,29.1900,-87.6367,0090,19.6670
1977-10-28 04:59:00 UTC,2443444.707639,29.1900,-87.6367,0090,19.6290
1977-10-28 05:59:00 UTC,2443444.749306,29.1900,-87.6367,0090,19.6770
1977-10-28 06:59:00 UTC,2443444.790972,29.1900,-87.6367,0090,19.7820
1977-10-28 07:59:00 UTC,2443444.832639,29.1900,-87.6367,0090,19.8440
1977-10-28 08:59:00 UTC,2443444.874306,29.1900,-87.6367,0090,19.9010
1977-10-28 09:59:00 UTC,2443444.915972,29.1900,-87.6367,0090,19.9660
1977-10-28 10:59:00 UTC,2443444.957639,29.1900,-87.6367,0090,20.0220
1977-10-28 11:59:00 UTC,2443444.999306,29.1900,-87.6367,0090,20.0560
1977-10-28 12:59:00 UTC,2443445.040972,29.1900,-87.6367,0090,20.0790
1977-10-28 13:59:00 UTC,2443445.082639,29.1900,-87.6367,0090,20.1150
1977-10-28 14:59:00 UTC,2443445.124306,29.1900,-87.6367,0090,20.1320
1977-10-28 15:59:00 UTC,2443445.165972,29.1900,-87.6367,0090,20.0810
1977-10-28 16:59:00 UTC,2443445.207639,29.1900,-87.6367,0090,20.0820
1977-10-28 17:59:00 UTC,2443445.249306,29.1900,-87.6367,0090,20.1360
1977-10-28 18:59:00 UTC,2443445.290972,29.1900,-87.6367,0090,20.1670
1977-10-28 19:59:00 UTC,2443445.332639,29.1900,-87.6367,0090,20.1740
1977-10-28 20:59:00 UTC,2443445.374306,29.1900,-87.6367,0090,20.1720
1977-10-28 21:59:00 UTC,2443445.415972,29.1900,-87.6367,0090,20.1740
1977-10-28 22:59:00 UTC,2443445.457639,29.1900,-87.6367,0090,20.1740
1977-10-28 23:59:00 UTC,2443445.499306,29.1900,-87.6367,0090,20.1750
1977-10-29 00:59:00 UTC,2443445.540972,29.1900,-87.6367,0090,20.1750
1977-10-29 01:59:00 UTC,2443445.582639,29.1900,-87.6367,0090,20.1760
1977-10-29 02:59:00 UTC,2443445.624306,29.1900,-87.6367,0090,20.1760
1977-10-29 03:59:00 UTC,2443445.665972,29.1900,-87.6367,0090,20.1770
1977-10-29 04:59:00 UTC,2443445.707639,29.1900,-87.6367,0090,20.1770
1977-10-29 05:59:00 UTC,2443445.749306,29.1900,-87.6367,0090,20.1780
1977-10-29 06:59:00 UTC,2443445.790972,29.1900,-87.6367,0090,20.1790
1977-10-29 07:59:00 UTC,2443445.832639,29.1900,-87.6367,0090,20.1790
1977-10-29 08:59:00 UTC,2443445.874306,29.1900,-87.6367,0090,20.1800
1977-10-29 09:59:00 UTC,2443445.915972,29.1900,-87.6367,0090,20.1800
1977-10-29 10:59:00 UTC,2443445.957639,29.1900,-87.6367,0090,20.1810
1977-10-29 11:59:00 UTC,2443445.999306,29.1900,-87.6367,0090,20.1810
1977-10-29 12:59:00 UTC,2443446.040972,29.1900,-87.6367,0090,20.1820
1977-10-29 13:59:00 UTC,2443446.082639,29.1900,-87.6367,0090,20.1820
1977-10-29 14:59:00 UTC,2443446.124306,29.1900,-87.6367,0090,20.1830
1977-10-29 15:59:00 UTC,2443446.165972,29.1900,-87.6367,0090,20.1830
1977-10-29 16:59:00 UTC,2443446.207639,29.1900,-87.6367,0090,20.1840
1977-10-29 17:59:00 UTC,2443446.249306,29.1900,-87.6367,0090,20.1840
1977-10-29 18:59:00 UTC,2443446.290972,29.1900,-87.6367,0090,20.1850
1977-10-29 19:59:00 UTC,2443446.332639,29.1900,-87.6367,0090,20.1860
1977-10-29 20:59:00 UTC,2443446.374306,29.1900,-87.6367,0090,20.1860
1977-10-29 21:59:00 UTC,2443446.415972,29.1900,-87.6367,0090,20.1870
1977-10-29 22:59:00 UTC,2443446.457639,29.1900,-87.6367,0090,20.1870
1977-10-29 23:59:00 UTC,2443446.499306,29.1900,-87.6367,0090,20.1880
1977-10-30 00:59:00 UTC,2443446.540972,29.1900,-87.6367,0090,20.1880
1977-10-30 01:59:00 UTC,2443446.582639,29.1900,-87.6367,0090,20.1890
1977-10-30 02:59:00 UTC,2443446.624306,29.1900,-87.6367,0090,20.1890
1977-10-30 03:59:00 UTC,2443446.665972,29.1900,-87.6367,0090,20.1900
1977-10-30 04:59:00 UTC,2443446.707639,29.1900,-87.6367,0090,20.1900
1977-10-30 05:59:00 UTC,2443446.749306,29.1900,-87.6367,0090,20.1910
1977-10-30 06:59:00 UTC,2443446.790972,29.1900,-87.6367,0090,20.1910
1977-10-30 07:59:00 UTC,2443446.832639,29.1900,-87.6367,0090,20.1920
1977-10-30 08:59:00 UTC,2443446.874306,29.1900,-87.6367,0090,20.1930
1977-10-30 09:59:00 UTC,2443446.915972,29.1900,-87.6367,0090,20.1930
1977-10-30 10:59:00 UTC,2443446.957639,29.1900,-87.6367,0090,20.1940
1977-10-30 11:59:00 UTC,2443446.999306,29.1900,-87.6367,0090,20.1940
1977-10-30 12:59:00 UTC,2443447.040972,29.1900,-87.6367,0090,20.1950
1977-10-30 13:59:00 UTC,2443447.082639,29.1900,-87.6367,0090,20.1920
1977-10-30 14:59:00 UTC,2443447.124306,29.1900,-87.6367,0090,20.1990
1977-10-30 15:59:00 UTC,2443447.165972,29.1900,-87.6367,0090,20.1800
1977-10-30 16:59:00 UTC,2443447.207639,29.1900,-87.6367,0090,20.0760
1977-10-30 17:59:00 UTC,2443447.249306,29.1900,-87.6367,0090,19.9460
1977-10-30 18:59:00 UTC,2443447.290972,29.1900,-87.6367,0090,19.8250
1977-10-30 19:59:00 UTC,2443447.332639,29.1900,-87.6367,0090,19.7010
1977-10-30 20:59:00 UTC,2443447.374306,29.1900,-87.6367,0090,19.5770
1977-10-30 21:59:00 UTC,2443447.415972,29.1900,-87.6367,0090,19.4530
1977-10-30 22:59:00 UTC,2443447.457639,29.1900,-87.6367,0090,19.3360
1977-10-30 23:59:00 UTC,2443447.499306,29.1900,-87.6367,0090,19.1970
1977-10-31 00:59:00 UTC,2443447.540972,29.1900,-87.6367,0090,19.1200
1977-10-31 01:59:00 UTC,2443447.582639,29.1900,-87.6367,0090,19.2400
1977-10-31 02:59:00 UTC,2443447.624306,29.1900,-87.6367,0090,19.4330
1977-10-31 03:59:00 UTC,2443447.665972,29.1900,-87.6367,0090,19.5620
1977-10-31 04:59:00 UTC,2443447.707639,29.1900,-87.6367,0090,19.6560
1977-10-31 05:59:00 UTC,2443447.749306,29.1900,-87.6367,0090,19.7200
1977-10-31 06:59:00 UTC,2443447.790972,29.1900,-87.6367,0090,19.7290
1977-10-31 07:59:00 UTC,2443447.832639,29.1900,-87.6367,0090,19.7370
1977-10-31 08:59:00 UTC,2443447.874306,29.1900,-87.6367,0090,19.7490
1977-10-31 09:59:00 UTC,2443447.915972,29.1900,-87.6367,0090,19.7590
1977-10-31 10:59:00 UTC,2443447.957639,29.1900,-87.6367,0090,19.7690
1977-10-31 11:59:00 UTC,2443447.999306,29.1900,-87.6367,0090,19.7790
1977-10-31 12:59:00 UTC,2443448.040972,29.1900,-87.6367,0090,19.7890
1977-10-31 13:59:00 UTC,2443448.082639,29.1900,-87.6367,0090,19.7990
1977-10-31 14:59:00 UTC,2443448.124306,29.1900,-87.6367,0090,19.8090
1977-10-31 15:59:00 UTC,2443448.165972,29.1900,-87.6367,0090,19.8200
1977-10-31 16:59:00 UTC,2443448.207639,29.1900,-87.6367,0090,19.8300
1977-10-31 17:59:00 UTC,2443448.249306,29.1900,-87.6367,0090,19.8400
1977-10-31 18:59:00 UTC,2443448.290972,29.1900,-87.6367,0090,19.8500
1977-10-31 19:59:00 UTC,2443448.332639,29.1900,-87.6367,0090,19.8600
1977-10-31 20:59:00 UTC,2443448.374306,29.1900,-87.6367,0090,19.8700
1977-10-31 21:59:00 UTC,2443448.415972,29.1900,-87.6367,0090,19.8800
1977-10-31 22:59:00 UTC,2443448.457639,29.1900,-87.6367,0090,19.8900
1977-10-31 23:59:00 UTC,2443448.499306,29.1900,-87.6367,0090,19.9010
1977-11-01 00:59:00 UTC,2443448.540972,29.1900,-87.6367,0090,19.9110
1977-11-01 01:59:00 UTC,2443448.582639,29.1900,-87.6367,0090,19.9210
1977-11-01 02:59:00 UTC,2443448.624306,29.1900,-87.6367,0090,19.9310
1977-11-01 03:59:00 UTC,2443448.665972,29.1900,-87.6367,0090,19.9410
1977-11-01 04:59:00 UTC,2443448.707639,29.1900,-87.6367,0090,19.9510
1977-11-01 05:59:00 UTC,2443448.749306,29.1900,-87.6367,0090,19.9620
1977-11-01 06:59:00 UTC,2443448.790972,29.1900,-87.6367,0090,19.9700
1977-11-01 07:59:00 UTC,2443448.832639,29.1900,-87.6367,0090,19.9990
1977-11-01 08:59:00 UTC,2443448.874306,29.1900,-87.6367,0090,20.0610
1977-11-01 09:59:00 UTC,2443448.915972,29.1900,-87.6367,0090,20.1240
1977-11-01 10:59:00 UTC,2443448.957639,29.1900,-87.6367,0090,20.1860
1977-11-01 11:59:00 UTC,2443448.999306,29.1900,-87.6367,0090,20.2480
1977-11-01 12:59:00 UTC,2443449.040972,29.1900,-87.6367,0090,20.3110
1977-11-01 13:59:00 UTC,2443449.082639,29.1900,-87.6367,0090,20.3730
1977-11-01 14:59:00 UTC,2443449.124306,29.1900,-87.6367,0090,20.4330
1977-11-01 15:59:00 UTC,2443449.165972,29.1900,-87.6367,0090,20.5000
1977-11-01 16:59:00 UTC,2443449.207639,29.1900,-87.6367,0090,20.5490
1977-11-01 17:59:00 UTC,2443449.249306,29.1900,-87.6367,0090,20.5400
1977-11-01 18:59:00 UTC,2443449.290972,29.1900,-87.6367,0090,20.5130
1977-11-01 19:59:00 UTC,2443449.332639,29.1900,-87.6367,0090,20.4930
1977-11-01 20:59:00 UTC,2443449.374306,29.1900,-87.6367,0090,20.4710
1977-11-01 21:59:00 UTC,2443449.415972,29.1900,-87.6367,0090,20.4380
1977-11-01 22:59:00 UTC,2443449.457639,29.1900,-87.6367,0090,20.4140
1977-11-01 23:59:00 UTC,2443449.499306,29.1900,-87.6367,0090,20.4110
1977-11-02 00:59:00 UTC,2443449.540972,29.1900,-87.6367,0090,20.4100
1977-11-02 01:59:00 UTC,2443449.582639,29.1900,-87.6367,0090,20.4070
1977-11-02 02:59:00 UTC,2443449.624306,29.1900,-87.6367,0090,20.4050
1977-11-02 03:59:00 UTC,2443449.665972,29.1900,-87.6367,0090,20.4030
1977-11-02 04:59:00 UTC,2443449.707639,29.1900,-87.6367,0090,20.4010
1977-11-02 05:59:00 UTC,2443449.749306,29.1900,-87.6367,0090,20.3990
1977-11-02 06:59:00 UTC,2443449.790972,29.1900,-87.6367,0090,20.3970
1977-11-02 07:59:00 UTC,2443449.832639,29.1900,-87.6367,0090,20.3950